Location: Oshawa
(43.9000°N, 78.8670°W)
Time: 03:58:42
(UTC-05:00)

Cosmos 839 Rocket - Visible Passes

Search period start: 18 February 2018 00:00
Search period end: 28 February 2018 00:00
Orbit: 959 x 2094 km, 65.9° (Epoch: 17 February)

Date Brightness Start Highest point End Pass type
(mag) Time Alt. Az. Time Alt. Az. Time Alt. Az.
18 Feb 7.4 06:38:59 10° SE 06:43:56 20° E 06:49:35 10° NE visible
18 Feb 7.3 18:46:05 10° NW 18:55:44 33° WSW 19:05:58 10° SSW visible
19 Feb 7.8 06:00:33 10° ESE 06:02:46 11° E 06:05:08 10° ENE visible
19 Feb 6.9 18:03:33 10° NW 18:14:05 46° WSW 18:25:22 10° S visible
20 Feb 8.2 19:25:05 10° WNW 19:30:55 15° W 19:36:55 10° SW visible
21 Feb 6.8 06:31:25 10° SSE 06:37:31 31° ESE 06:44:54 10° NE visible
21 Feb 8.0 18:41:17 10° NW 18:49:36 24° W 18:58:16 10° SW visible
22 Feb 7.2 05:51:17 10° SE 05:56:14 20° E 06:01:53 10° NE visible
23 Feb 7.6 05:12:56 10° ESE 05:15:06 11° E 05:17:22 10° ENE visible
24 Feb 5.9 06:24:31 10° S 06:31:17 47° ESE 06:39:47 10° NE visible
24 Feb 8.4 18:37:17 10° WNW 18:43:17 16° W 18:49:28 10° SW visible
25 Feb 6.6 05:43:41 10° SSE 05:49:49 31° ESE 05:57:14 10° NE visible
26 Feb 7.0 05:03:35 10° SE 05:08:32 20° E 05:14:12 10° NE visible
27 Feb 7.4 04:25:19 10° ESE 04:27:24 11° E 04:29:36 10° ENE visible
27 Feb 5.2 06:18:05 10° SSW 06:25:15 68° ESE 06:34:28 10° NE visible
